Leeuwarden, Netherlands

2:02 AM CET on February 28, 2017 (GMT +0100)
Leeuwarden Air Base

Weather History for EHLW - March, 2013

Change the Weather History Date:

Thursday, March 14, 2013

  Actual Average Record
Temperature  
Mean Temperature 30 °F -  
Max Temperature 36 °F 49 °F 55 °F (2011)
Min Temperature 24 °F 36 °F 24 °F (2006)
Degree Days  
Heating Degree Days 35    
Moisture  
Dew Point 24 °F    
Average Humidity 77    
Maximum Humidity 93    
Minimum Humidity 56    
Precipitation  
Precipitation 0.00 in - - ()
Sea Level Pressure  
Sea Level Pressure 29.90 in    
Wind  
Wind Speed 6 mph ()    
Max Wind Speed 12 mph    
Max Gust Speed -    
Visibility 6.3 miles    
Events Snow    
Averages and records for this station are not official NWS values.
T = Trace of Precipitation, MM = Missing Value Source: Averaged Metar Reports

Daily Weather History Graph

Daily Weather History Graph

Search for Another Location

Airport or City:

Trip Planner

Search our weather history database for the weather conditions in past years. The results will help you decide how hot, cold, wet, or windy it might be!

Date:

Astronomy

Mar. 14, 2013 Rise Set
Actual Time 6:53 AM CET 6:39 PM CET
Civil Twilight 6:19 AM CET 7:14 PM CET
Nautical Twilight 5:38 AM CET 7:54 PM CET
Astronomical Twilight 4:57 AM CET 8:36 PM CET
Moon 7:31 AM CET (3/14) 10:12 PM CET (3/14)
Length of Visible Light 12h 54m
Length of Day
11h 45m
Waxing Crescent, 7% of the Moon is Illuminated
Mar 14
Waxing Crescent
Mar 19
First Quarter
Mar 27
Full
Apr 3
Last Quarter
Apr 10
New

Hourly Weather History & Observations

Time (CET) Temp. Windchill Dew Point Humidity Pressure Visibility Wind Dir Wind Speed Gust Speed Precip Events Conditions
12:25 AM 28.4 °F 23.3 °F 24.8 °F 86% 29.77 in 3.1 mi NNW 4.6 mph - N/A   Mostly Cloudy
12:29 AM 28.4 °F 24.6 °F 24.8 °F 86% 29.77 in 6.2 mi NNW 3.5 mph - N/A   Mostly Cloudy
12:39 AM 30.2 °F - 24.8 °F 80% 29.77 in 6.2 mi NW 2.3 mph - N/A   Mostly Cloudy
12:55 AM 28.4 °F 22.2 °F 23.0 °F 80% 29.77 in 6.2 mi North 5.8 mph - N/A   Partly Cloudy
1:00 AM 27 °F - 23 °F 77% 29.79 in 19 mi North 4.5 mph - -   Unknown Precipitation
1:25 AM 28.4 °F 23.3 °F 23.0 °F 80% 29.77 in 6.2 mi North 4.6 mph - N/A   Partly Cloudy
1:55 AM 26.6 °F 22.6 °F 23.0 °F 86% 29.80 in 6.2 mi NNE 3.5 mph - N/A   Partly Cloudy
2:11 AM 28.4 °F 21.2 °F 24.8 °F 86% 29.80 in 1.6 mi NNE 6.9 mph - N/A   Partly Cloudy
2:15 AM 30.2 °F 22.6 °F 24.8 °F 80% 29.80 in 6.2 mi NE 8.1 mph - N/A   Partly Cloudy
2:25 AM 28.4 °F 19.7 °F 24.8 °F 86% 29.80 in 6.2 mi NE 9.2 mph - N/A   Partly Cloudy
2:55 AM 28.4 °F 24.6 °F 24.8 °F 86% 29.80 in 6.2 mi East 3.5 mph - N/A   Mostly Cloudy
3:25 AM 26.6 °F - 23.0 °F 86% 29.80 in 6.2 mi North 2.3 mph - N/A   Partly Cloudy
3:55 AM 26.6 °F 21.2 °F 23.0 °F 86% 29.80 in 6.2 mi North 4.6 mph - N/A   Scattered Clouds
4:14 AM 26.6 °F 18.2 °F 24.8 °F 93% 29.83 in 6.2 mi North 8.1 mph - N/A   Mostly Cloudy
4:18 AM 30.2 °F 21.3 °F 26.6 °F 86% 29.83 in - NNE 10.4 mph - N/A Snow Light Snow
4:25 AM 30.2 °F 20.8 °F 28.4 °F 93% 29.83 in 5.0 mi NE 11.5 mph - N/A Snow Light Snow
4:37 AM 30.2 °F 24.3 °F 28.4 °F 93% 29.83 in 6.2 mi NNE 5.8 mph - N/A   Overcast
4:55 AM 30.2 °F 24.3 °F 28.4 °F 93% 29.83 in 6.2 mi NNE 5.8 mph - N/A   Overcast
5:25 AM 30.2 °F 23.4 °F 26.6 °F 86% 29.83 in 6.2 mi NNE 6.9 mph - N/A   Overcast
5:55 AM 26.6 °F 18.2 °F 23.0 °F 86% 29.83 in 6.2 mi North 8.1 mph - N/A   Partly Cloudy
6:25 AM 28.4 °F 21.2 °F 24.8 °F 86% 29.83 in 6.2 mi NE 6.9 mph - N/A   Scattered Clouds
6:55 AM 28.4 °F 19.7 °F 23.0 °F 80% 29.86 in 6.2 mi NE 9.2 mph - N/A   Mostly Cloudy
7:00 AM 27 °F - 22 °F 72% 29.86 in 22 mi NE 6.7 mph - -   Partly Cloudy
7:25 AM 24.8 °F 16.9 °F 21.2 °F 86% 29.86 in 6.2 mi NNE 6.9 mph - N/A   Mostly Cloudy
7:55 AM 30.2 °F 22.6 °F 24.8 °F 80% 29.86 in 6.2 mi NNE 8.1 mph - N/A   Mostly Cloudy
8:02 AM 30.2 °F 22.6 °F 24.8 °F 80% 29.89 in 6.2 mi NNE 8.1 mph - N/A   Mostly Cloudy
8:05 AM 30.2 °F 21.9 °F 24.8 °F 80% 29.89 in 6.2 mi NNE 9.2 mph - N/A   Mostly Cloudy
8:25 AM 32.0 °F 23.0 °F 23.0 °F 69% 29.89 in 6.2 mi NE 11.5 mph - N/A   Scattered Clouds
8:55 AM 32.0 °F 24.8 °F 21.2 °F 64% 29.89 in 6.2 mi NE 8.1 mph - N/A   Scattered Clouds
9:25 AM 33.8 °F 26.4 °F 23.0 °F 65% 29.89 in 6.2 mi NE 9.2 mph - N/A   Partly Cloudy
9:34 AM 33.8 °F 26.4 °F 21.2 °F 60% 29.92 in 6.2 mi NE 9.2 mph - N/A   Partly Cloudy
9:55 AM 33.8 °F 25.8 °F 21.2 °F 60% 29.92 in 6.2 mi NNE 10.4 mph - N/A   Partly Cloudy
10:25 AM 33.8 °F 25.8 °F 21.2 °F 60% 29.92 in 6.2 mi NE 10.4 mph - N/A   Mostly Cloudy
10:55 AM 33.8 °F 26.4 °F 23.0 °F 65% 29.92 in 6.2 mi NE 9.2 mph - N/A   Mostly Cloudy
11:17 AM 32.0 °F 24.2 °F 23.0 °F 69% 29.92 in 4.3 mi NNE 9.2 mph - N/A   Haze
11:18 AM 30.2 °F 21.3 °F 23.0 °F 75% 29.92 in - NNE 10.4 mph - N/A   Haze
11:25 AM 30.2 °F 20.8 °F 24.8 °F 80% 29.95 in - NNE 11.5 mph - N/A Snow Light Snow
11:29 AM 30.2 °F 21.3 °F 24.8 °F 80% 29.95 in 3.7 mi NNE 10.4 mph - N/A Snow Light Snow
11:36 AM 30.2 °F 23.4 °F 26.6 °F 86% 29.95 in 6.2 mi NE 6.9 mph - N/A   Mostly Cloudy
11:49 AM 33.8 °F 29.6 °F 30.2 °F 87% 29.95 in 6.2 mi NNE 4.6 mph - N/A   Partly Cloudy
11:55 AM 33.8 °F 29.6 °F 30.2 °F 87% 29.95 in 6.2 mi NNE 4.6 mph - N/A   Partly Cloudy
12:06 PM 35.6 °F 30.7 °F 28.4 °F 75% 29.95 in 6.2 mi NNE 5.8 mph - N/A   Mostly Cloudy
12:19 PM 35.6 °F 29.9 °F 24.8 °F 65% 29.95 in 6.2 mi North 6.9 mph - N/A   Mostly Cloudy
12:25 PM 33.8 °F 27.0 °F 23.0 °F 65% 29.95 in 6.2 mi NNE 8.1 mph - N/A   Mostly Cloudy
12:55 PM 33.8 °F 27.0 °F 23.0 °F 65% 29.95 in 6.2 mi North 8.1 mph - N/A Snow Light Snow
1:00 PM 32 °F - 25 °F 68% 29.95 in 8 mi NNW 11.2 mph - - Snow Light Snow Showers
1:00 PM 32.0 °F 23.0 °F 24.8 °F 75% 29.95 in 6.2 mi NNW 11.5 mph - N/A Snow Light Snow
1:09 PM 32.0 °F 23.0 °F 26.6 °F 80% 29.95 in 3.7 mi NNW 11.5 mph - N/A Snow Light Snow
1:10 PM 32.0 °F 23.0 °F 28.4 °F 87% 29.95 in 6.2 mi NNW 11.5 mph - N/A Snow Light Snow
1:17 PM 32.0 °F 23.6 °F 28.4 °F 87% 29.95 in 3.7 mi NNW 10.4 mph - N/A Snow Light Snow
1:25 PM 32.0 °F 24.8 °F 28.4 °F 87% 29.95 in 5.0 mi NNW 8.1 mph - N/A Snow Light Snow
1:36 PM 33.8 °F 28.6 °F 28.4 °F 81% 29.95 in 6.2 mi North 5.8 mph - N/A   Mostly Cloudy
1:46 PM 35.6 °F 31.7 °F 28.4 °F 75% 29.95 in 6.2 mi North 4.6 mph - N/A   Scattered Clouds
1:55 PM 33.8 °F 27.7 °F 26.6 °F 75% 29.95 in 6.2 mi NNE 6.9 mph - N/A   Mostly Cloudy
2:05 PM 33.8 °F 29.6 °F 26.6 °F 75% 29.92 in 6.2 mi North 4.6 mph - N/A   Partly Cloudy
2:25 PM 35.6 °F 32.8 °F 26.6 °F 70% 29.92 in 6.2 mi NNW 3.5 mph - N/A   Scattered Clouds
2:29 PM 35.6 °F 32.8 °F 26.6 °F 70% 29.92 in 6.2 mi NNW 3.5 mph - N/A   Mostly Cloudy
2:43 PM 33.8 °F 27.7 °F 24.8 °F 70% 29.92 in 6.2 mi North 6.9 mph - N/A   Mostly Cloudy
2:47 PM 33.8 °F 27.7 °F 24.8 °F 70% 29.92 in 6.2 mi North 6.9 mph - N/A   Mostly Cloudy
2:55 PM 35.6 °F 29.2 °F 26.6 °F 70% 29.92 in 6.2 mi North 8.1 mph - N/A   Partly Cloudy
3:25 PM 35.6 °F 28.6 °F 24.8 °F 65% 29.92 in 6.2 mi North 9.2 mph - N/A   Scattered Clouds
3:55 PM 35.6 °F 30.7 °F 24.8 °F 65% 29.92 in 6.2 mi North 5.8 mph - N/A   Mostly Cloudy
4:25 PM 35.6 °F 29.2 °F 24.8 °F 65% 29.92 in 6.2 mi North 8.1 mph - N/A   Mostly Cloudy
4:42 PM 35.6 °F 29.9 °F 23.0 °F 60% 29.92 in 6.2 mi North 6.9 mph - N/A   Partly Cloudy
4:55 PM 35.6 °F 29.2 °F 23.0 °F 60% 29.92 in 6.2 mi North 8.1 mph - N/A   Mostly Cloudy
5:25 PM 35.6 °F 28.6 °F 21.2 °F 56% 29.95 in 6.2 mi NNW 9.2 mph - N/A   Partly Cloudy
5:55 PM 32.0 °F 25.6 °F 23.0 °F 69% 29.95 in 6.2 mi NNW 6.9 mph - N/A   Partly Cloudy
6:25 PM 32.0 °F 28.7 °F 23.0 °F 69% 29.95 in 6.2 mi NW 3.5 mph - N/A   Partly Cloudy
6:55 PM 32.0 °F - 23.0 °F 69% 29.95 in 6.2 mi West 2.3 mph - N/A   Partly Cloudy
7:00 PM 30 °F - 22 °F 60% 29.96 in 19 mi West 2.2 mph - -   Partly Cloudy
7:25 PM 30.2 °F - 21.2 °F 69% 29.95 in 6.2 mi West 2.3 mph - N/A   Partly Cloudy
7:55 PM 30.2 °F - 23.0 °F 75% 29.95 in 6.2 mi SW 2.3 mph - N/A   Partly Cloudy
8:25 PM 28.4 °F 24.6 °F 23.0 °F 80% 29.95 in 6.2 mi South 3.5 mph - N/A   Mostly Cloudy
8:55 PM 26.6 °F - 21.2 °F 80% 29.95 in 6.2 mi SW 2.3 mph - N/A   Partly Cloudy
9:25 PM 28.4 °F 24.6 °F 23.0 °F 80% 29.95 in 6.2 mi South 3.5 mph - N/A   Scattered Clouds
9:55 PM 26.6 °F 22.6 °F 23.0 °F 86% 29.95 in 6.2 mi SSW 3.5 mph - N/A   Partly Cloudy
10:25 PM 26.6 °F 22.6 °F 23.0 °F 86% 29.95 in 6.2 mi SSW 3.5 mph - N/A   Partly Cloudy
10:55 PM 26.6 °F 21.2 °F 21.2 °F 80% 29.95 in 6.2 mi SSW 4.6 mph - N/A   Partly Cloudy
11:25 PM 24.8 °F 20.5 °F 21.2 °F 86% 29.95 in 6.2 mi SSW 3.5 mph - N/A   Partly Cloudy
11:55 PM 26.6 °F 21.2 °F 23.0 °F 86% 29.95 in 6.2 mi South 4.6 mph - N/A   Partly Cloudy